Content
SEND FEEDBACK

Daily
Averages
Monthly
Summary
Mexico

CANCUN, QUINTANA ROO


Home > North America > Mexico > Quintana Roo
Elevation: 30 feet     Latitude: 21 09N     Longitude: 086 49W

WEATHER
 
SELECT A DAY
Number of Records: 163,746;   Date Range: 1/1/95 - 7/30/14
 
SHARE

PRINT THIS DATA

[ ← Previous Day ]
WEATHER ALMANAC - FEBRUARY 4, 2013
[ Next Day → ]
[ °C ]   °F
Weather ElementAverageHighLow
Temperature69.9 °F78.8 °F (12:47 pm)60.8 °F (2:45 am)
Dewpoint61.7 °F66.2 °F (5:47 pm)57.2 °F (1:40 am)
Humidity77.2 %100 % (8:45 pm)54 % (11:45 am)
Barometer30.01 in30.08 in (9:44 am)29.95 in (3:45 pm)
Wind Speed5.6 mph11.5 mph (1:41 pm)
Weather ElementAverage
Visibility7 mi
Wind DirectionSSE (155.9 °)

Weather ElementTotal
Precipitation---
Cooling Degree Days4.8 (Base 65)
Growing Degree Days19.8 (Base 50)
Averaged from 22 records on February 4, 2013
WEATHER CONDITIONS BREAKOUT
WIND DIRECTION BREAKOUT
WEATHER BY HOUR - FEBRUARY 4, 2013
[ °C ]   °F
Local TimeTemperatureDewpointHumidityBarometerVisibilityWind DirectionWind SpeedGust SpeedPrecipitationEventsConditions
1:40 AM62.6 °F57.2 °F82 %30.05 in7.0 miNNW (330°)4.6 mphPartly Cloudy
2:45 AM60.8 °F57.2 °F88 %30.02 in7.0 miNNW (340°)3.5 mphPartly Cloudy
4:40 AM60.8 °F57.2 °F88 %30.03 in7.0 miNNW (330°)5.8 mphPartly Cloudy
5:48 AM60.8 °F57.2 °F88 %30.03 in7.0 miNNW (330°)4.6 mphScattered Clouds
6:49 AM60.8 °F57.2 °F88 %30.05 in7.0 miNNW (330°)5.8 mphScattered Clouds
7:52 AM66.2 °F60.8 °F83 %30.07 in7.0 miNW (320°)4.6 mphScattered Clouds
8:50 AM73.4 °F62.6 °F69 %29.98 in7.0 miNorth (360°)3.5 mphScattered Clouds
9:44 AM77.0 °F60.8 °F57 %30.08 in7.0 miENE (60°)6.9 mphScattered Clouds
10:44 AM77.0 °F60.8 °F57 %30.06 in7.0 miENE (70°)6.9 mphScattered Clouds
11:45 AM77.0 °F59.0 °F54 %30.04 in7.0 miESE (110°)3.5 mphScattered Clouds
12:47 PM78.8 °F60.8 °F54 %30.01 in7.0 miEast (90°)10.4 mphScattered Clouds
1:41 PM77.0 °F59.0 °F54 %29.98 in7.0 miEast (100°)11.5 mphScattered Clouds
2:45 PM77.0 °F60.8 °F57 %29.97 in7.0 miSE (140°)10.4 mphScattered Clouds
3:45 PM77.0 °F62.6 °F61 %29.95 in7.0 miEast (90°)6.9 mphClear
4:46 PM75.2 °F64.4 °F69 %29.96 in7.0 miESE (120°)9.2 mphClear
5:47 PM73.4 °F66.2 °F78 %29.95 in7.0 miEast (100°)4.6 mphClear
6:41 PM71.6 °F66.2 °F83 %29.97 in7.0 miNE (40°)3.5 mphClear
7:45 PM68.0 °F64.4 °F88 %29.98 in7.0 miEast (80°)4.6 mphClear
8:45 PM66.2 °F66.2 °F100 %30.01 in7.0 miCalmClear
9:48 PM66.2 °F66.2 °F100 %30.01 in7.0 miNE (50°)5.8 mphClear
10:47 PM66.2 °F66.2 °F100 %30.01 in7.0 miNE (40°)5.8 mphClear
11:46 PM64.4 °F64.4 °F100 %29.98 in7.0 miCalmClear
Hourly data recorded from MMUN, located miles away from Cancun, Quintana Roo







STORIES FROM OUR PARTNERS